DW7816 Weather Reports


Display with metric or nautical units.
time (UTC)temp
F
wind
direction
speed
MPH
gust
MPH
rain 1hr
in
rain 24hr
in
rain mn
in
humidity
%
barometer
mb
20260502211204 63 52 4.0 10.0 0.00 0.00 0.00 52 1019.9
20260502205040 63 95 2.0 11.0 0.00 0.00 0.00 52 1020.1
20260502204023 63 76 3.0 12.0 0.00 0.00 0.00 56 1020.1
20260502203037 62 163 4.0 12.0 0.00 0.00 0.00 51 1020.3
20260502202013 62 38 3.0 10.0 0.00 0.00 0.00 50 1020.4
20260502201016 61 42 3.0 9.0 0.00 0.00 0.00 52 1020.4
20260502200012 63 69 3.0 12.0 0.00 0.00 0.00 54 1020.5
20260502195011 62 65 4.0 12.0 0.00 0.00 0.00 51 1020.7
20260502194005 62 5 4.0 10.0 0.00 0.00 0.00 53 1020.7
20260502193022 61 53 5.0 11.0 0.00 0.00 0.00 50 1020.7
20260502192001 62 64 3.0 11.0 0.00 0.00 0.00 53 1020.7
20260502190943 60 19 4.0 11.0 0.00 0.00 0.00 49 1020.8
20260502185948 59 266 4.0 11.0 0.00 0.00 0.00 52 1020.9
20260502181731 61 107 4.0 14.0 0.00 0.00 0.00 57 1020.9
20260502180730 59 81 4.0 11.0 0.00 0.00 0.00 52 1021.0
20260502163651 59 74 5.0 14.0 0.00 0.00 0.00 60 1021.5
20260502162632 59 325 5.0 13.0 0.00 0.00 0.00 59 1021.3
20260502161644 59 12 4.0 10.0 0.00 0.00 0.00 56 1021.3
20260502160616 58 35 5.0 12.0 0.00 0.00 0.00 62 1021.3
20260502151452 56 40 5.0 10.0 0.00 0.00 0.00 64 1021.5
20260502150504 56 99 5.0 13.0 0.00 0.00 0.00 62 1021.4
20260502122627 42 0 0.0 0.0 0.00 0.00 0.00 99 1020.4
20260502120523 39 0 0.0 0.0 0.00 0.00 0.00 98 1020.2
20260502115501 38 0 0.0 0.0 0.00 0.00 0.00 97 1020.2
20260502114431 38 0 0.0 0.0 0.00 0.00 0.00 97 1019.9
20260502113417 38 342 0.0 0.0 0.00 0.00 0.00 97 1019.8
20260502112359 37 342 0.0 0.0 0.00 0.00 0.00 97 1019.8
20260502111356 37 342 0.0 0.0 0.00 0.00 0.00 97 1019.8
20260502110324 37 342 0.0 0.0 0.00 0.00 0.00 97 1019.7
20260502104158 37 342 0.0 0.0 0.00 0.00 0.00 97 1019.4
20260502103156 37 342 0.0 0.0 0.00 0.00 0.00 96 1019.4
20260502102154 37 342 0.0 0.0 0.00 0.00 0.00 96 1019.2
20260502101137 37 342 0.0 0.0 0.00 0.00 0.00 96 1019.2
20260502100139 37 342 0.0 0.0 0.00 0.00 0.00 96 1019.0
20260502071420 39 276 0.0 0.0 0.00 0.00 0.00 95 1018.6
20260502070422 39 275 0.0 0.0 0.00 0.00 0.00 95 1018.7
20260502064300 40 275 0.0 0.0 0.00 0.00 0.00 94 1018.8
20260502063258 40 275 0.0 0.0 0.00 0.00 0.00 94 1018.8
20260502062319 40 275 0.0 0.0 0.00 0.00 0.00 94 1018.9
20260502061246 41 275 0.0 0.0 0.00 0.00 0.00 94 1019.0
20260502060214 41 275 0.0 0.0 0.00 0.00 0.00 94 1019.0
20260502055152 41 276 0.0 0.0 0.00 0.00 0.00 94 1019.0
20260502054136 41 276 0.0 0.0 0.00 0.00 0.00 95 1018.9
20260502053111 41 276 0.0 0.0 0.00 0.00 0.00 95 1018.9
20260502052113 41 275 0.0 0.0 0.00 0.00 0.00 94 1018.8
20260502051134 41 275 0.0 0.0 0.00 0.00 0.00 94 1018.7
20260502050133 41 276 0.0 0.0 0.00 0.00 0.00 93 1018.8
20260502045130 41 275 0.0 0.0 0.00 0.00 0.00 93 1018.8
20260502044118 42 276 0.0 0.0 0.00 0.00 0.00 92 1018.8
20260502043113 42 275 0.0 0.0 0.00 0.00 0.00 92 1018.7
20260502042120 42 275 0.0 0.0 0.00 0.00 0.00 91 1018.8
20260502040001 43 276 0.0 0.0 0.00 0.00 0.00 91 1018.8
20260502035012 43 276 0.0 0.0 0.00 0.00 0.00 90 1019.0
20260502032900 44 276 0.0 0.0 0.00 0.00 0.00 89 1019.0
20260502031912 44 276 0.0 0.0 0.00 0.00 0.00 88 1019.1
20260502025823 45 275 0.0 0.0 0.00 0.00 0.00 85 1019.1
20260502023621 46 275 0.0 0.0 0.00 0.00 0.00 85 1019.0
20260502022634 46 276 0.0 0.0 0.00 0.00 0.00 84 1018.8
20260502021654 47 276 0.0 0.0 0.00 0.00 0.00 83 1018.8
20260502020630 48 276 0.0 0.0 0.00 0.00 0.00 81 1018.7
20260502015619 49 276 0.0 0.0 0.00 0.00 0.00 78 1018.6
20260502014643 50 276 0.0 0.0 0.00 0.00 0.00 77 1018.5
20260502012510 52 276 0.0 0.0 0.00 0.00 0.00 70 1018.2
20260502011502 53 276 0.0 0.0 0.00 0.00 0.00 65 1017.9
20260502010506 54 276 0.0 0.0 0.00 0.00 0.00 62 1017.8
20260502005459 55 276 0.0 0.0 0.00 0.00 0.00 61 1017.6
20260502004457 56 276 0.0 0.0 0.00 0.00 0.00 60 1017.3
20260502002307 58 266 0.0 0.0 0.00 0.00 0.00 54 1017.1
20260502001332 59 21 0.0 6.0 0.00 0.00 0.00 51 1017.0
20260502000347 59 55 0.0 3.0 0.00 0.00 0.00 49 1016.9
20260501234215 60 225 1.0 7.0 0.00 0.00 0.00 48 1017.0
20260501232024 62 48 4.0 12.0 0.00 0.00 0.00 46 1017.1
20260501231049 62 71 4.0 14.0 0.00 0.00 0.00 41 1017.1
20260501230110 62 52 4.0 14.0 0.00 0.00 0.00 42 1017.0
20260501225049 63 42 3.0 10.0 0.00 0.00 0.00 45 1016.9
20260501224049 63 48 4.0 10.0 0.00 0.00 0.00 46 1016.8
20260501223101 63 22 4.0 10.0 0.00 0.00 0.00 46 1017.0
20260501221001 62 42 5.0 14.0 0.00 0.00 0.00 48 1016.8
20260501214918 62 65 5.0 12.0 0.00 0.00 0.00 42 1016.7
20260501213915 63 49 4.0 12.0 0.00 0.00 0.00 44 1016.7
20260501212845 63 69 2.0 11.0 0.00 0.00 0.00 40 1017.0